Tracking 29892 objects as of 21-Nov-2024
HD Live streaming from Space Station
objects crossing your sky now

CXBN

Track CXBN now!
10-day predictions
CXBN is classified as:


NORAD ID: 38762
Int'l Code: 2012-048E
Perigee: 460.5 km
Apogee: 648.3 km
Inclination: 64.7 °
Period: 95.6 minutes
Semi major axis: 6925 km
RCS: Unknown
Launch date: September 13, 2012
Source: United States (US)
Launch site: AIR FORCE WESTERN TEST RANGE (AFWTR)

Uplink (MHz):
Downlink (MHz): 437.525
Beacon (MHz):
Mode: 9600bps GFSK
Call sign:
Status: Inactive

Your satellite tracking list
Your tracking list is empty




NASA's NSSDC Master Catalog

Two Line Element Set (TLE):
1 38762U 12048E   24325.19551749  .00017178  00000-0  95083-3 0  9990
2 38762  64.6638 239.4019 0135544 333.5468  25.8771 15.06383335 31352
Source of the keplerian elements: AFSPC